Regional Weather Roundup
Issued by NWS Goodland, KS

Home | Current Version | Previous Version | Graphics & Text | Print | Product List | Glossary On
Versions: 1 2 3 4 5 6 7 8 9 10 11 12 13 14 15 16 17 18 19 20 21 22 23 24 25 26 27 28 29 30 31 32 33 34 35 36 37 38 39 40 41 42 43 44 45 46 47 48 49 50
000
ASUS43 KGLD 281059
RWRGLD

GOODLAND FORECAST AREA HOURLY WEATHER ROUNDUP
NATIONAL WEATHER SERVICE GOODLAND KS
500 AM MDT THU JUL 28 2016

...OFFICIAL OBSERVATIONS...

CITY           SKY/WX    TMP DP  RH WIND       PRES   REMARKS
GOODLAND KS    CLOUDY    68  53  58 E28G45    30.10F THUNDER
HILL CITY KS   PTCLDY    68  67  96 W5        30.08R
IMPERIAL NEB   CLOUDY    65  61  87 CALM      30.10R
MCCOOK NEB     CLOUDY    67  65  93 E5        30.07F FOG
AKRON CO       CLEAR     61  56  83 SE14      30.15S
BURLINGTON CO  MOCLDY    62  55  77 E17       30.16F
LIMON CO       CLOUDY    57  55  93 SE8       30.22R
$$

...UNOFFICIAL OBSERVATIONS...

CITY           SKY/WX    TMP DP  RH WIND       PRES   REMARKS
COLBY KS       LGT RAIN  64  59  82 NW14      30.18F
LENORA KS        N/A     68  32  26 MISG        N/A
NORTON KS      CLEAR     68  63  83 CALM      30.08R
KIT CARSON CO    N/A     63  57  80 MISG        N/A
YUMA CO          N/A     59  56  91 CALM        N/A
$$




USA.gov is the U.S. government's official web portal to all federal, state and local government web resources and services.